Date String (YYYY-MM-DD hh:mm:ss) UTC,Instrument flags,Ambient pressure (hPa),Sample flow (lpm),Bypass flow (lpm),Sample temperature (°C),Ambient temperature (°C),ASC tube jacket temperature (°C),LED temperature (°C),Box temperature (°C),Sample RH (%),Span deviation,Mass concentration (μg/m³),Mass concentration (μg/m³),Mass concentration (μg/m³)
DateTimeUTC,F1_M11,P_M11,Q1_M11,Q2_M11,T1_M11,T2_M11,T3_M11,T4_M11,T5_M11,U1_M11,ZSPAN_M11,X2_M11,X0_M11,X1_M11
2022-03-18 10:00:00,,0825.9,5.00,0.00,22.4,22.0,00.0,31.4,24.1,12.8,0000.0,0002.70,0004.90,0002.33
2022-03-18 10:01:00,,0825.9,4.99,0.00,22.4,21.8,00.0,31.4,24.1,12.7,0000.0,0002.67,0004.46,0002.33
2022-03-18 10:02:00,,0826.0,5.00,0.00,22.4,21.8,00.0,31.4,24.0,12.7,0000.0,0002.65,0003.63,0002.31
2022-03-18 10:03:00,,0826.0,5.00,0.00,22.3,21.7,00.0,31.4,24.0,12.7,0000.0,0002.63,0003.65,0002.30
2022-03-18 10:04:00,,0826.0,5.00,0.00,22.3,21.6,00.0,31.4,24.0,12.7,0000.0,0002.59,0003.57,0002.28
2022-03-18 10:05:00,,0826.0,5.00,0.00,22.3,21.6,00.0,31.4,24.0,12.7,0000.0,0002.60,0003.69,0002.27
2022-03-18 10:06:00,,0826.0,4.99,0.00,22.3,21.5,00.0,31.3,24.0,12.7,0000.0,0002.61,0003.79,0002.25
2022-03-18 10:07:00,,0826.0,5.01,0.00,22.2,21.5,00.0,31.3,23.9,12.7,0000.0,0002.57,0003.71,0002.23
2022-03-18 10:08:00,,0826.0,5.00,0.00,22.2,21.4,00.0,31.3,23.9,12.6,0000.0,0002.50,0003.55,0002.19
2022-03-18 10:09:00,,0826.0,5.00,0.00,22.2,21.4,00.0,31.3,23.9,12.6,0000.0,0002.47,0003.57,0002.16
2022-03-18 10:10:00,,0826.0,4.99,0.00,22.2,21.3,00.0,31.3,23.8,12.7,0000.0,0002.45,0003.48,0002.14
2022-03-18 10:11:00,,0826.0,5.01,0.00,22.1,21.3,00.0,31.3,23.8,12.7,0000.0,0002.44,0003.48,0002.14
2022-03-18 10:12:00,,0826.0,5.00,0.00,22.1,21.4,00.0,31.3,23.8,12.8,0000.0,0002.44,0003.71,0002.16
2022-03-18 10:13:00,,0826.0,4.98,0.00,22.2,22.1,00.0,31.3,24.0,12.7,0000.0,0002.46,0004.21,0002.18
2022-03-18 10:14:00,,0826.0,5.02,0.00,22.3,22.8,00.0,31.3,24.3,12.6,0000.0,0002.51,0004.22,0002.21
2022-03-18 10:15:00,,0826.0,5.00,0.00,22.5,23.1,00.0,31.3,24.4,12.5,0000.0,0002.52,0004.24,0002.24
2022-03-18 10:16:00,,0826.0,4.99,0.00,22.5,22.8,00.0,31.4,24.4,12.5,0000.0,0002.49,0004.12,0002.23
2022-03-18 10:17:00,,0826.0,5.01,0.00,22.5,22.6,00.0,31.4,24.3,12.5,0000.0,0002.48,0004.06,0002.23
2022-03-18 10:18:00,,0825.9,5.01,0.00,22.4,22.3,00.0,31.4,24.2,12.5,0000.0,0002.52,0005.92,0002.25
2022-03-18 10:19:00,,0825.9,5.00,0.00,22.4,22.1,00.0,31.4,24.2,12.4,0000.0,0002.52,0005.93,0002.25
2022-03-18 10:20:00,,0825.9,4.99,0.00,22.4,22.0,00.0,31.4,24.1,12.3,0000.0,0002.50,0005.96,0002.24
2022-03-18 10:21:00,,0825.9,4.99,0.00,22.3,21.8,00.0,31.4,24.0,12.4,0000.0,0002.50,0005.93,0002.26
2022-03-18 10:22:00,,0825.9,5.00,0.00,22.3,21.7,00.0,31.3,24.0,12.4,0000.0,0002.52,0005.96,0002.27
2022-03-18 10:23:00,,0825.9,5.02,0.00,22.3,21.6,00.0,31.3,24.0,12.5,0000.0,0002.52,0006.36,0002.25
2022-03-18 10:24:00,,0825.9,5.00,0.00,22.3,21.6,00.0,31.3,23.9,12.5,0000.0,0002.52,0006.45,0002.23
2022-03-18 10:25:00,,0826.0,5.00,0.00,22.2,21.5,00.0,31.3,23.9,12.4,0000.0,0002.47,0006.32,0002.21
2022-03-18 10:26:00,,0826.0,5.00,0.00,22.2,21.4,00.0,31.3,23.9,12.3,0000.0,0002.45,0006.33,0002.16
2022-03-18 10:27:00,,0826.0,5.00,0.00,22.2,21.4,00.0,31.3,23.8,12.3,0000.0,0002.44,0006.48,0002.13
2022-03-18 10:28:00,,0826.0,5.01,0.00,22.1,21.3,00.0,31.3,23.8,12.2,0000.0,0002.42,0006.43,0002.12
2022-03-18 10:29:00,,0826.0,5.00,0.00,22.1,21.3,00.0,31.2,23.8,12.3,0000.0,0002.39,0005.28,0002.10
2022-03-18 10:30:00,,0826.0,4.99,0.00,22.1,21.3,00.0,31.2,23.8,12.3,0000.0,0002.39,0004.57,0002.10
2022-03-18 10:31:00,,0826.0,5.00,0.00,22.2,21.9,00.0,31.3,23.9,12.2,0000.0,0002.41,0004.54,0002.12
2022-03-18 10:32:00,,0826.0,4.99,0.00,22.3,22.7,00.0,31.3,24.2,12.1,0000.0,0002.39,0004.49,0002.11
2022-03-18 10:33:00,,0826.0,5.00,0.00,22.4,23.0,00.0,31.3,24.4,12.0,0000.0,0002.37,0004.45,0002.08
2022-03-18 10:34:00,,0826.0,4.99,0.00,22.5,22.8,00.0,31.4,24.4,11.8,0000.0,0002.31,0004.15,0002.04
2022-03-18 10:35:00,,0826.0,5.01,0.00,22.5,22.6,00.0,31.4,24.3,11.7,0000.0,0002.25,0003.36,0001.99
2022-03-18 10:36:00,,0826.0,5.00,0.00,22.5,22.4,00.0,31.4,24.3,11.8,0000.0,0002.23,0003.38,0001.96
2022-03-18 10:37:00,,0826.1,5.00,0.00,22.4,22.2,00.0,31.4,24.2,11.9,0000.0,0002.20,0003.33,0001.95
2022-03-18 10:38:00,,0826.0,5.01,0.00,22.4,22.0,00.0,31.4,24.1,12.0,0000.0,0002.18,0003.17,0001.95
2022-03-18 10:39:00,,0826.0,5.00,0.00,22.4,21.9,00.0,31.4,24.1,12.0,0000.0,0002.18,0003.12,0001.95
2022-03-18 10:40:00,,0826.0,5.00,0.00,22.3,21.8,00.0,31.3,24.1,12.1,0000.0,0002.17,0003.19,0001.94
2022-03-18 10:41:00,,0826.0,4.99,0.00,22.3,21.7,00.0,31.3,24.0,12.1,0000.0,0002.19,0003.28,0001.93
2022-03-18 10:42:00,,0826.0,5.00,0.00,22.3,21.6,00.0,31.3,24.0,12.1,0000.0,0002.19,0003.36,0001.93
2022-03-18 10:43:00,,0826.0,4.99,0.00,22.2,21.5,00.0,31.3,23.9,12.2,0000.0,0002.19,0003.35,0001.93
2022-03-18 10:44:00,,0826.0,5.00,0.00,22.2,21.5,00.0,31.3,23.9,12.2,0000.0,0002.18,0003.33,0001.93
2022-03-18 10:45:00,,0826.1,5.00,0.00,22.2,21.4,00.0,31.3,23.9,12.2,0000.0,0002.18,0003.34,0001.94
2022-03-18 10:46:00,,0826.0,5.00,0.00,22.2,21.4,00.0,31.3,23.8,12.3,0000.0,0002.23,0003.29,0001.97
2022-03-18 10:47:00,,0826.1,5.00,0.00,22.1,21.3,00.0,31.3,23.8,12.3,0000.0,0002.26,0003.23,0001.99
2022-03-18 10:48:00,,0826.1,5.00,0.00,22.1,21.3,00.0,31.2,23.8,12.3,0000.0,0002.29,0003.28,0002.01
2022-03-18 10:49:00,,0826.0,5.00,0.00,22.1,21.3,00.0,31.2,23.7,12.3,0000.0,0002.31,0003.33,0002.03
2022-03-18 10:50:00,,0826.1,5.00,0.00,22.1,21.7,00.0,31.2,23.9,12.3,0000.0,0002.30,0003.33,0002.02
2022-03-18 10:51:00,,0826.2,5.02,0.00,22.2,22.5,00.0,31.3,24.1,12.1,0000.0,0002.30,0003.29,0002.02
2022-03-18 10:52:00,,0826.2,5.00,0.00,22.4,23.0,00.0,31.3,24.3,12.0,0000.0,0002.28,0003.19,0002.02
2022-03-18 10:53:00,,0826.1,4.99,0.00,22.4,22.8,00.0,31.3,24.3,12.0,0000.0,0002.28,0003.07,0002.02
2022-03-18 10:54:00,,0826.1,4.99,0.00,22.4,22.5,00.0,31.3,24.3,12.0,0000.0,0002.28,0003.08,0002.02
2022-03-18 10:55:00,,0826.0,5.01,0.00,22.4,22.3,00.0,31.3,24.2,11.9,0000.0,0002.30,0003.65,0002.02
2022-03-18 10:56:00,,0826.0,5.01,0.00,22.4,22.1,00.0,31.3,24.1,11.9,0000.0,0002.29,0003.75,0002.02
2022-03-18 10:57:00,,0826.1,5.00,0.00,22.3,21.9,00.0,31.3,24.0,11.9,0000.0,0002.26,0003.70,0002.01
2022-03-18 10:58:00,,0826.0,5.00,0.00,22.3,21.8,00.0,31.3,24.0,11.9,0000.0,0002.27,0003.67,0002.01
2022-03-18 10:59:00,,0826.0,5.01,0.00,22.3,21.7,00.0,31.3,23.9,11.9,0000.0,0002.29,0003.67,0001.99
